Погода в Педерналесе

Доминиканская Республика     18°02′08″N   71°44′38″W
темп.,
°C
ветер,
м/с
пор.,
м/с
влажн.,
%
обл.,
%
осадки,
мм/ч
давл.,
гПа
погр.,
м
28 мая, сб
сб2823:00+26в34675 0.0 1016137
02:00+26в22655 0.0 1014128
05:00+25в12655 0.0 1013159
08:00+26юв126322 0.0 1015337
11:00+29ююв345789 0.0 1015633
14:00+30зсз1358100 0.0 1014622
17:00+29з246098 0.1 1013483
20:00+27юв45664 0.1 1013154
29 мая, вс
вс2923:00+26в236321 0.0 1015100
02:00+26в2262100 0.0 1013105
05:00+26св116057 0.0 1013202
08:00+27ссз015857 0.0 1015319
11:00+30ююз235625 0.0 1015672
14:00+30ююз135940 0.0 1013654
17:00+30ю345828 0.1 1012610
20:00+28вюв796992 0.1 1013237
30 мая, пн
пн3023:00+27в3468100 0.0 1014143
02:00+26всв2262100 0.0 101399
05:00+26всв2264100 0.0 101368
08:00+27вюв2263100 0.0 1014194
11:00+29ю1358100 0.0 1014607
14:00+30з235998 0.0 1013683
17:00+31ююв555671 0.1 1011453
20:00+28вюв796790 0.1 1013254
31 мая, вт
вт3123:00+27вюв4568100 0.0 1013182
02:00+27в336996 0.0 1012127
05:00+26всв117059 0.0 1012206
08:00+27юв116778 0.0 1014366
11:00+29ююз126156 0.0 1014604
14:00+30з136093 0.2 1012619
17:00+30ююз235737 0.3 1010729
20:00+27юв5671100 0.4 1012195
1 июня, ср
ср123:00+27вюв4570100 0.1 1013158
02:00+26вюв237162 0.1 1012152
05:00+26в227099 0.0 1012295
08:00+27вюв1267100 0.0 1013342
11:00+29ююз235998 0.0 1013664
14:00+30юз1361100 0.1 1012603
17:00+29ююз3459100 0.3 1011717
20:00+27юв6775100 0.4 1012316